EW7351 Weather Reports


time (UTC)temp
F
wind
direction
speed
knots
gust
knots
rain 1hr
in
rain 24hr
in
rain mn
in
humidity
%
barometer
mb
20260904112505 77 127 0.9 4.3 0.00 0.00 0.00 85 1012.4
20260904112233 77 131 0.0 4.3 0.00 0.00 0.00 84 1012.4
20260904111459 78 134 0.9 5.2 0.00 0.00 0.00 84 1012.4
20260904111226 78 164 0.9 6.1 0.00 0.00 0.00 84 1012.3
20260904110430 78 113 0.9 6.1 0.00 0.00 0.00 84 1012.3
20260904105926 78 141 1.7 6.1 0.00 0.00 0.00 84 1012.3
20260904105626 78 108 0.9 3.5 0.00 0.00 0.00 84 1012.4
20260904104856 78 136 0.0 1.7 0.00 0.00 0.00 83 1012.4
20260904104356 78 122 0.9 4.3 0.00 0.00 0.00 83 1012.3
20260904103832 78 117 0.9 4.3 0.00 0.00 0.00 83 1012.3
20260904103524 78 134 0.9 3.5 0.00 0.00 0.00 83 1012.2
20260904102803 78 231 1.7 5.2 0.00 0.00 0.00 83 1012.2
20260904102236 78 149 0.9 5.2 0.00 0.00 0.00 83 1012.2
20260904101708 78 143 0.9 3.5 0.00 0.00 0.00 82 1012.1
20260904101141 78 124 0.9 4.3 0.00 0.00 0.00 82 1012.2
20260904100639 78 101 0.9 4.3 0.00 0.00 0.00 82 1012.2
20260904100111 78 133 0.9 7.0 0.00 0.00 0.00 82 1012.1
20260904095543 78 171 0.9 7.0 0.00 0.00 0.00 81 1012.1
20260904095043 78 236 0.9 3.5 0.00 0.00 0.00 81 1012.1
20260904094514 78 131 0.9 4.3 0.00 0.00 0.00 80 1012.1
20260904093950 78 154 0.9 4.3 0.00 0.00 0.00 80 1012.2
20260904093429 78 206 0.9 4.3 0.00 0.00 0.00 80 1012.1
20260904092928 78 184 0.9 4.3 0.00 0.00 0.00 80 1012.0
20260904092407 78 207 0.9 3.5 0.00 0.00 0.00 80 1012.0
20260904091907 78 142 0.9 7.0 0.00 0.00 0.00 79 1012.0
20260904091405 78 120 1.7 7.0 0.00 0.00 0.00 79 1012.0
20260904091121 78 228 0.9 6.1 0.00 0.00 0.00 79 1012.1
20260904090401 78 130 0.9 4.3 0.00 0.00 0.00 79 1012.1
20260904085833 78 158 1.7 4.3 0.00 0.00 0.00 79 1012.1
20260904085531 78 139 0.9 4.3 0.00 0.01 0.00 79 1012.1
20260904084740 78 201 0.9 4.3 0.00 0.01 0.00 79 1012.1
20260904084723 78 127 0.0 2.6 0.00 0.01 0.00 79 1012.0
20260904083734 78 122 0.9 5.2 0.00 0.01 0.00 78 1012.1
20260904083205 78 131 0.9 5.2 0.00 0.01 0.00 78 1012.0
20260904082706 78 217 0.9 4.3 0.00 0.01 0.00 78 1012.0
20260904082205 78 133 0.9 4.3 0.00 0.01 0.00 78 1011.9
20260904081704 78 117 0.9 2.6 0.00 0.01 0.00 78 1012.0
20260904081135 78 139 0.0 1.7 0.00 0.01 0.00 77 1012.0
20260904080634 77 138 0.0 1.7 0.00 0.01 0.00 77 1012.1
20260904080109 77 129 0.0 1.7 0.00 0.01 0.00 77 1012.1
20260904075555 78 116 0.0 1.7 0.00 0.01 0.00 77 1012.0
20260904075058 78 260 0.0 2.6 0.00 0.01 0.00 76 1011.9
20260904074753 78 120 0.0 4.3 0.00 0.01 0.00 76 1011.7
20260904074025 78 131 0.9 4.3 0.00 0.01 0.00 76 1011.9
20260904074001 78 132 0.9 4.3 0.00 0.01 0.00 76 1011.7
20260904073500 78 136 1.7 4.3 0.00 0.01 0.00 76 1011.7
20260904072514 78 221 0.9 4.3 0.00 0.01 0.00 75 1011.9
20260904072009 78 150 0.9 3.5 0.00 0.01 0.00 75 1012.0
20260904071507 78 119 0.9 2.6 0.00 0.01 0.00 75 1012.0
20260904071227 78 132 0.9 2.6 0.00 0.01 0.00 75 1012.0
20260904070504 78 195 0.9 3.5 0.00 0.01 0.00 74 1012.1
20260904065933 78 211 0.9 3.5 0.00 0.01 0.00 74 1012.1
20260904065432 78 161 0.9 4.3 0.00 0.01 0.00 74 1012.1
20260904064906 79 126 0.9 4.3 0.00 0.01 0.00 74 1012.1
20260904064337 79 188 1.7 4.3 0.00 0.01 0.00 73 1012.2
20260904063827 79 221 1.7 5.2 0.00 0.01 0.00 73 1012.2
20260904063323 79 144 2.6 6.1 0.00 0.01 0.00 73 1012.2
20260904062821 79 238 1.7 6.1 0.00 0.01 0.00 73 1012.2
20260904062253 79 142 0.9 4.3 0.00 0.01 0.00 73 1012.1
20260904062017 79 188 1.7 5.2 0.00 0.01 0.00 72 1012.1
20260904061225 79 262 2.6 5.2 0.00 0.01 0.00 72 1012.1
20260904060701 79 233 1.7 5.2 0.00 0.01 0.00 72 1012.1
20260904060202 79 128 1.7 5.2 0.00 0.01 0.00 71 1012.2
20260904055633 79 198 1.7 6.1 0.00 0.01 0.00 70 1012.2
20260904055129 80 215 2.6 4.3 0.00 0.01 0.00 70 1012.2
20260904054608 80 207 2.6 6.1 0.00 0.01 0.00 70 1012.2
20260904054034 80 233 2.6 7.0 0.00 0.01 0.00 69 1012.1
20260904053531 80 171 2.6 7.0 0.00 0.01 0.00 69 1012.1
20260904053027 80 230 2.6 6.1 0.00 0.01 0.00 69 1012.0
20260904052507 80 156 2.6 6.1 0.00 0.01 0.00 69 1012.0
20260904052007 80 151 1.7 5.2 0.00 0.01 0.00 69 1012.0
20260904051504 80 197 1.7 5.2 0.00 0.01 0.00 68 1012.1
20260904050951 80 162 1.7 7.0 0.00 0.01 0.00 68 1012.0
20260904050447 80 247 2.6 7.0 0.00 0.01 0.00 68 1012.0
20260904045927 80 160 1.7 6.1 0.00 0.01 0.01 67 1012.0
20260904045425 80 194 1.7 6.1 0.00 0.01 0.01 67 1012.1
20260904044925 80 188 1.7 5.2 0.00 0.01 0.01 66 1012.1
20260904044422 80 94 1.7 5.2 0.00 0.01 0.01 66 1012.1
20260904043921 80 139 1.7 5.2 0.00 0.01 0.01 66 1012.1
20260904043419 80 125 2.6 5.2 0.00 0.01 0.01 65 1012.1
20260904042922 80 188 2.6 7.8 0.00 0.01 0.01 65 1012.2
20260904042352 81 186 2.6 7.8 0.00 0.01 0.01 65 1012.3
20260904041851 81 221 1.7 7.0 0.00 0.01 0.01 65 1012.2
20260904041355 81 229 2.6 5.2 0.00 0.01 0.01 65 1012.3
20260904040835 81 220 2.6 6.1 0.00 0.01 0.01 65 1012.2
20260904040310 81 150 2.6 5.2 0.00 0.01 0.01 64 1012.2
20260904035803 81 256 2.6 6.1 0.00 0.01 0.01 64 1012.2
20260904035245 81 254 2.6 5.2 0.00 0.01 0.01 64 1012.1
20260904034743 81 207 1.7 6.1 0.00 0.01 0.01 64 1012.1
20260904034245 81 194 1.7 6.1 0.00 0.01 0.01 64 1012.1
20260904033725 81 117 1.7 7.0 0.00 0.01 0.01 64 1012.2
20260904033218 81 127 2.6 6.1 0.00 0.01 0.01 64 1012.2
20260904032659 82 200 2.6 8.7 0.00 0.01 0.01 64 1012.2
20260904032138 82 266 2.6 8.7 0.00 0.01 0.01 64 1012.4
20260904031641 82 242 2.6 8.7 0.00 0.01 0.01 64 1012.3
20260904031116 82 113 2.6 5.2 0.00 0.01 0.01 64 1012.2
20260904030559 82 200 3.5 8.7 0.00 0.01 0.01 64 1012.2
20260904030256 82 98 3.5 7.8 0.00 0.01 0.01 64 1012.0
20260904025510 82 117 3.5 10.4 0.00 0.01 0.01 64 1012.0
20260904025005 82 245 3.5 10.4 0.00 0.01 0.01 64 1011.9
20260904024503 82 131 2.6 7.0 0.00 0.01 0.01 64 1011.9
20260904024004 82 181 2.6 7.0 0.00 0.01 0.01 64 1011.7
20260904023439 83 250 3.5 7.0 0.00 0.01 0.01 65 1011.5
20260904022913 83 172 2.6 8.7 0.00 0.01 0.01 65 1011.5
20260904022410 83 82 2.6 8.7 0.00 0.01 0.01 66 1011.4
20260904021910 83 244 2.6 7.0 0.00 0.01 0.01 67 1011.2
20260904021409 83 133 2.6 9.6 0.00 0.01 0.01 66 1011.1
20260904020905 83 165 3.5 8.7 0.00 0.01 0.01 65 1011.1
20260904020341 83 207 3.5 9.6 0.00 0.01 0.01 64 1011.1
20260904015812 83 120 2.6 7.8 0.00 0.01 0.01 64 1010.9
20260904015308 84 218 1.7 7.0 0.00 0.01 0.01 64 1010.9
20260904014806 84 115 1.7 6.1 0.00 0.01 0.01 65 1010.8
20260904014305 84 133 3.5 6.1 0.00 0.01 0.01 65 1010.8
20260904013736 84 126 3.5 7.8 0.00 0.01 0.01 64 1010.8
20260904013211 84 124 2.6 7.8 0.00 0.01 0.01 64 1010.7
20260904012642 85 170 3.5 7.0 0.00 0.01 0.01 64 1010.6
20260904012338 85 195 3.5 7.8 0.00 0.01 0.01 64 1010.6
20260904011608 85 151 2.6 7.8 0.00 0.01 0.01 65 1010.5
20260904011044 85 108 2.6 8.7 0.00 0.01 0.01 64 1010.4
20260904010744 85 115 2.6 8.7 0.00 0.01 0.01 64 1010.4
20260904010022 85 152 2.6 9.6 0.00 0.01 0.01 63 1010.4
20260904005523 85 144 3.5 9.6 0.00 0.01 0.01 63 1010.5
20260904005022 85 96 2.6 7.8 0.00 0.01 0.01 63 1010.5
20260904004518 86 216 3.5 11.3 0.00 0.01 0.01 62 1010.5
20260904004239 86 136 4.3 11.3 0.00 0.01 0.01 62 1010.5
20260904003511 86 112 3.5 7.8 0.00 0.01 0.01 61 1010.4
20260904002947 87 180 4.3 11.3 0.00 0.01 0.01 60 1010.4
20260904002420 87 152 5.2 12.2 0.00 0.01 0.01 59 1010.4
20260904001915 87 105 5.2 12.2 0.00 0.01 0.01 58 1010.3
20260904001634 87 119 5.2 11.3 0.00 0.01 0.01 57 1010.3
20260904000910 88 117 4.3 11.3 0.00 0.01 0.01 56 1010.3
20260904000406 88 166 3.5 7.8 0.00 0.01 0.01 55 1010.3
20260903235904 88 110 4.3 8.7 0.00 0.01 0.01 55 1010.3
20260903235336 88 122 4.3 10.4 0.00 0.01 0.01 55 1010.3
20260903235055 88 136 4.3 11.3 0.00 0.01 0.01 55 1010.2
20260903234331 89 124 2.6 11.3 0.00 0.01 0.01 55 1010.2
20260903233828 89 279 3.5 12.2 0.00 0.01 0.01 56 1010.2
20260903233312 89 126 4.3 12.2 0.00 0.01 0.01 56 1010.2
20260903232744 89 167 4.3 11.3 0.00 0.01 0.01 57 1010.0
20260903232242 89 137 5.2 11.3 0.00 0.01 0.01 56 1010.0
20260903232159 89 142 5.2 11.3 0.00 0.01 0.01 56 1010.1
20260903231148 89 131 5.2 12.2 0.00 0.01 0.01 56 1010.1
20260903230912 89 137 5.2 12.2 0.00 0.01 0.01 55 1010.0
20260903230119 89 110 5.2 11.3 0.00 0.01 0.01 55 1010.0
20260903225615 90 149 4.3 11.3 0.00 0.01 0.01 54 1010.0
20260903225113 90 143 4.3 8.7 0.00 0.01 0.01 54 1010.0
20260903224549 91 154 3.5 10.4 0.00 0.01 0.01 54 1009.9
20260903224020 91 223 3.5 9.6 0.00 0.01 0.01 53 1009.9
20260903223516 91 141 3.5 9.6 0.00 0.02 0.01 54 1009.9
20260903223211 90 116 4.3 9.6 0.00 0.05 0.01 53 1009.9
20260903222641 90 217 4.3 10.4 0.00 0.05 0.01 53 1009.9
20260903221918 90 107 5.2 10.4 0.00 0.05 0.01 54 1009.9
20260903221640 90 153 5.2 11.3 0.00 0.05 0.01 53 1009.9
20260903220914 90 108 5.2 11.3 0.00 0.05 0.01 52 1009.9
20260903220349 90 113 5.2 10.4 0.00 0.05 0.01 53 1009.9
20260903215842 91 145 5.2 11.3 0.00 0.05 0.01 52 1010.0
20260903215314 91 262 4.3 11.3 0.00 0.05 0.01 52 1010.1
20260903214808 91 91 4.3 9.6 0.00 0.05 0.01 52 1010.1
20260903214306 91 203 5.2 9.6 0.00 0.05 0.01 52 1010.2
20260903213738 91 171 4.3 9.6 0.00 0.05 0.01 52 1010.2
20260903213236 91 226 4.3 8.7 0.00 0.05 0.01 51 1010.3
20260903212706 91 112 4.3 10.4 0.00 0.05 0.01 53 1010.2
20260903212142 91 212 5.2 10.4 0.00 0.05 0.01 53 1010.3
20260903211617 90 250 6.1 12.2 0.00 0.05 0.01 53 1010.4
20260903211104 91 231 5.2 12.2 0.00 0.05 0.01 53 1010.4
20260903210607 91 128 5.2 10.4 0.00 0.05 0.01 52 1010.5
20260903210048 91 188 5.2 10.4 0.00 0.05 0.01 54 1010.5
20260903205545 90 199 5.2 11.3 0.00 0.05 0.01 53 1010.6
20260903205505 90 162 5.2 11.3 0.00 0.05 0.01 54 1010.6
20260903204720 91 200 4.3 10.4 0.00 0.05 0.01 53 1010.7
20260903203928 90 60 4.3 10.4 0.00 0.05 0.01 54 1010.8
20260903203401 90 148 5.2 10.4 0.00 0.05 0.01 55 1010.8
20260903202901 90 123 5.2 11.3 0.00 0.05 0.01 56 1011.0
20260903202332 90 115 5.2 11.3 0.00 0.05 0.01 55 1011.1
20260903201828 90 240 4.3 11.3 0.00 0.05 0.01 55 1011.1
20260903201327 90 250 4.3 11.3 0.00 0.05 0.01 55 1011.2
20260903200824 89 217 5.2 10.4 0.00 0.05 0.01 56 1011.2
20260903200302 89 139 5.2 10.4 0.00 0.05 0.01 57 1011.2
20260903195803 89 243 5.2 9.6 0.00 0.05 0.01 58 1011.2
20260903195233 88 165 5.2 10.4 0.00 0.05 0.01 59 1011.2
20260903194731 88 229 5.2 11.3 0.00 0.05 0.01 58 1011.2
20260903194224 88 173 4.3 11.3 0.00 0.05 0.01 59 1011.3
20260903193700 88 267 5.2 10.4 0.00 0.05 0.01 59 1011.3
20260903193352 88 162 4.3 8.7 0.00 0.05 0.01 58 1011.3
20260903192626 88 160 4.3 11.3 0.00 0.05 0.01 60 1011.4
20260903192129 87 146 5.2 10.4 0.00 0.05 0.01 60 1011.5
20260903191603 86 164 5.2 11.3 0.00 0.05 0.01 62 1011.6
20260903191046 86 120 4.3 11.3 0.00 0.05 0.01 62 1011.7
20260903190809 86 240 3.5 10.4 0.00 0.05 0.01 62 1012.0
20260903190017 86 123 4.3 10.4 0.00 0.05 0.01 62 1012.0
20260903185517 86 238 4.3 10.4 0.00 0.05 0.01 61 1012.1
20260903185218 87 160 5.2 10.4 0.00 0.05 0.01 60 1012.2
20260903184450 87 230 5.2 11.3 0.00 0.05 0.01 61 1012.2
20260903183920 86 229 6.1 12.2 0.00 0.05 0.01 64 1012.3
20260903183419 86 139 6.1 17.4 0.00 0.05 0.01 63 1012.3
20260903182915 86 117 5.2 17.4 0.00 0.05 0.01 63 1012.3
20260903182413 86 248 5.2 10.4 0.00 0.05 0.01 63 1012.4
20260903181855 85 131 6.1 13.9 0.00 0.05 0.01 65 1012.5
20260903181357 85 122 6.1 12.2 0.00 0.05 0.01 65 1012.6
20260903180830 84 246 5.2 13.0 0.00 0.05 0.01 67 1012.6
20260903180329 84 217 5.2 13.0 0.00 0.05 0.01 68 1012.7
20260903175828 84 113 5.2 12.2 0.00 0.05 0.01 69 1012.7
20260903175323 83 215 5.2 12.2 0.00 0.05 0.01 69 1012.8
20260903174820 83 112 5.2 12.2 0.00 0.05 0.01 70 1012.8
20260903174302 83 254 5.2 12.2 0.00 0.05 0.01 70 1012.8
20260903174023 83 194 6.1 12.2 0.00 0.05 0.01 70 1012.9
20260903173506 83 149 6.1 13.0 0.00 0.05 0.01 71 1012.9
20260903172747 83 163 6.1 13.0 0.00 0.05 0.01 72 1013.0
20260903172223 82 167 6.1 12.2 0.00 0.05 0.01 72 1013.0
20260903171656 82 158 6.1 10.4 0.00 0.05 0.01 73 1013.0
20260903171128 82 201 5.2 11.3 0.00 0.05 0.01 74 1013.0
20260903170626 82 153 4.3 9.6 0.00 0.05 0.01 74 1013.2
20260903170104 81 247 4.3 9.6 0.00 0.05 0.01 75 1013.1
20260903165534 81 140 4.3 8.7 0.00 0.05 0.01 75 1013.1
20260903165010 81 207 4.3 9.6 0.00 0.05 0.01 75 1013.0
20260903164441 81 231 4.3 7.8 0.00 0.05 0.01 76 1013.0
20260903163927 81 133 4.3 9.6 0.00 0.05 0.01 75 1013.0
20260903163418 81 139 4.3 8.7 0.00 0.05 0.01 75 1012.9
20260903162916 81 211 4.3 8.7 0.00 0.05 0.01 75 1012.9
20260903162355 82 129 3.5 8.7 0.00 0.05 0.01 76 1012.9
20260903161836 82 111 3.5 8.7 0.00 0.05 0.01 77 1012.8
20260903161335 82 245 3.5 8.7 0.00 0.05 0.01 76 1012.8
20260903160835 82 174 3.5 10.4 0.00 0.05 0.01 76 1012.8
20260903160314 82 121 3.5 10.4 0.00 0.05 0.01 77 1012.8
20260903155816 82 127 3.5 9.6 0.00 0.05 0.01 77 1012.8
20260903155525 81 136 4.3 9.6 0.00 0.05 0.01 77 1012.7
20260903155025 81 241 4.3 9.6 0.00 0.05 0.01 78 1012.7
20260903154303 81 184 4.3 9.6 0.00 0.05 0.01 79 1012.7
20260903153805 81 229 3.5 8.7 0.00 0.05 0.01 80 1012.7
20260903153236 80 204 2.6 7.0 0.00 0.05 0.01 81 1012.7
20260903152736 80 194 3.5 7.8 0.00 0.05 0.01 82 1012.7
20260903152500 80 137 2.6 7.8 0.00 0.05 0.01 82 1012.6
20260903152151 80 122 1.7 7.8 0.00 0.05 0.01 82 1012.7
20260903151155 80 141 3.5 7.8 0.00 0.05 0.01 83 1012.7
20260903150859 80 136 3.5 10.4 0.00 0.05 0.01 83 1012.7
20260903150132 80 139 3.5 10.4 0.00 0.05 0.01 83 1012.7
20260903145633 80 110 2.6 8.7 0.00 0.05 0.01 82 1012.7
20260903145132 80 105 2.6 8.7 0.00 0.05 0.01 82 1012.7
20260903144828 80 176 1.7 6.1 0.00 0.05 0.01 82 1012.7
20260903144044 80 190 0.9 7.8 0.00 0.05 0.01 82 1012.7
20260903143518 80 187 2.6 7.8 0.00 0.05 0.01 82 1012.7
20260903143015 80 150 2.6 9.6 0.00 0.05 0.01 82 1012.7
20260903142515 80 138 2.6 9.6 0.00 0.05 0.01 82 1012.7
20260903142008 80 136 3.5 7.8 0.00 0.05 0.01 83 1012.8
20260903141441 79 233 2.6 8.7 0.00 0.05 0.01 83 1012.7
20260903140940 79 139 2.6 7.0 0.00 0.05 0.01 83 1012.8
20260903140410 79 201 1.7 7.0 0.00 0.05 0.01 84 1012.9
20260903135904 79 161 1.7 7.0 0.00 0.05 0.01 84 1012.9
20260903135334 79 200 2.6 6.1 0.00 0.05 0.01 84 1012.8
20260903134831 79 112 2.6 6.1 0.00 0.05 0.01 85 1012.8
20260903134329 78 122 2.6 6.1 0.00 0.05 0.01 85 1012.8
20260903134249 78 144 2.6 7.8 0.00 0.05 0.01 85 1012.7
20260903133236 78 124 3.5 8.7 0.00 0.05 0.01 85 1012.7
20260903132736 78 164 3.5 8.7 0.00 0.05 0.01 85 1012.7
20260903132454 78 155 2.6 8.7 0.00 0.05 0.01 85 1012.8
20260903131930 78 124 2.6 8.7 0.00 0.05 0.01 85 1012.7
20260903131204 78 175 2.6 7.0 0.00 0.05 0.01 85 1012.6
20260903130635 78 134 1.7 6.1 0.00 0.05 0.01 85 1012.5
20260903130133 78 163 1.7 7.0 0.00 0.05 0.01 85 1012.5
20260903125605 78 86 2.6 7.0 0.00 0.05 0.01 86 1012.4
20260903125324 78 108 2.6 7.8 0.00 0.05 0.01 85 1012.4
20260903124551 77 124 2.6 7.8 0.00 0.05 0.01 85 1012.4
20260903124049 77 151 1.7 6.1 0.00 0.05 0.01 85 1012.4
20260903123527 77 146 2.6 7.8 0.00 0.05 0.01 85 1012.3
20260903123003 77 153 3.5 7.8 0.00 0.05 0.01 85 1012.2
20260903122938 77 106 3.5 7.8 0.00 0.05 0.01 85 1012.4
20260903122006 77 129 2.6 7.8 0.00 0.05 0.01 85 1012.4
20260903121503 77 134 2.6 7.0 0.00 0.05 0.01 85 1012.3
20260903121006 77 195 2.6 8.7 0.00 0.05 0.01 86 1012.2
20260903120437 77 134 1.7 8.7 0.00 0.05 0.01 86 1012.2
20260903115937 77 134 1.7 5.2 0.00 0.05 0.01 86 1012.2
20260903115408 77 110 1.7 5.2 0.00 0.05 0.01 86 1012.2
20260903114907 77 132 0.9 5.2 0.00 0.05 0.01 86 1012.1
20260903114352 77 194 0.9 5.2 0.00 0.05 0.01 86 1012.0
20260903113854 77 148 0.9 5.2 0.00 0.05 0.01 86 1011.9
20260903113325 77 170 0.9 5.2 0.00 0.05 0.01 86 1011.7
20260903113305 77 129 0.0 2.6 0.00 0.05 0.01 86 1012.0